| time (UTC) | temp F | wind direction | speed MPH | gust MPH | rain 1hr in | rain 24hr in | rain mn in | humidity % | barometer mb |
| 20260502210058 | 60 | 338 | 2.0 | 4.0 | 0.00 | 0.03 | 0.03 | 45 | 1019.0 |
| 20260502205019 | 60 | 314 | 3.0 | 5.0 | 0.00 | 0.03 | 0.03 | 44 | 1019.1 |
| 20260502204019 | 61 | 353 | 2.0 | 5.0 | 0.00 | 0.03 | 0.03 | 43 | 1019.1 |
| 20260502203018 | 62 | 299 | 2.0 | 5.0 | 0.00 | 0.03 | 0.03 | 41 | 1019.2 |
| 20260502202019 | 63 | 337 | 2.0 | 4.0 | 0.00 | 0.03 | 0.03 | 43 | 1019.3 |
| 20260502201059 | 63 | 327 | 2.0 | 4.0 | 0.00 | 0.03 | 0.03 | 41 | 1019.4 |
| 20260502200019 | 62 | 324 | 2.0 | 5.0 | 0.00 | 0.03 | 0.03 | 42 | 1019.5 |
| 20260502195019 | 62 | 352 | 3.0 | 5.0 | 0.00 | 0.03 | 0.03 | 41 | 1019.5 |
| 20260502194016 | 62 | 19 | 2.0 | 4.0 | 0.00 | 0.03 | 0.03 | 41 | 1019.5 |
| 20260502193019 | 61 | 351 | 3.0 | 7.0 | 0.00 | 0.03 | 0.03 | 42 | 1019.7 |
| 20260502192020 | 60 | 352 | 3.0 | 7.0 | 0.00 | 0.03 | 0.03 | 42 | 1019.7 |
| 20260502191019 | 58 | 284 | 3.0 | 5.0 | 0.00 | 0.03 | 0.03 | 44 | 1019.8 |
| 20260502190100 | 58 | 274 | 3.0 | 6.0 | 0.00 | 0.03 | 0.03 | 45 | 1019.8 |
| 20260502185017 | 57 | 322 | 3.0 | 7.0 | 0.00 | 0.03 | 0.03 | 44 | 1019.8 |
| 20260502184017 | 58 | 324 | 3.0 | 6.0 | 0.00 | 0.03 | 0.03 | 46 | 1019.8 |
| 20260502183020 | 59 | 335 | 3.0 | 7.0 | 0.00 | 0.03 | 0.03 | 46 | 1019.8 |
| 20260502182102 | 59 | 318 | 3.0 | 5.0 | 0.00 | 0.03 | 0.03 | 46 | 1019.8 |
| 20260502181017 | 59 | 312 | 3.0 | 5.0 | 0.00 | 0.03 | 0.03 | 43 | 1019.7 |
| 20260502163019 | 57 | 273 | 3.0 | 4.0 | 0.00 | 0.03 | 0.03 | 56 | 1019.9 |
| 20260502162023 | 57 | 251 | 3.0 | 4.0 | 0.00 | 0.03 | 0.03 | 58 | 1020.0 |
| 20260502161023 | 57 | 327 | 3.0 | 5.0 | 0.00 | 0.03 | 0.03 | 58 | 1019.9 |
| 20260502152023 | 57 | 310 | 3.0 | 4.0 | 0.00 | 0.03 | 0.03 | 61 | 1019.7 |
| 20260502151103 | 57 | 339 | 3.0 | 5.0 | 0.00 | 0.03 | 0.03 | 61 | 1019.7 |
| 20260502130105 | 51 | 316 | 3.0 | 4.0 | 0.00 | 0.03 | 0.03 | 82 | 1019.1 |
| 20260502123025 | 50 | 349 | 3.0 | 4.0 | 0.00 | 0.03 | 0.03 | 84 | 1018.8 |
| 20260502122025 | 49 | 304 | 3.0 | 4.0 | 0.00 | 0.03 | 0.03 | 87 | 1018.8 |
| 20260502121026 | 48 | 346 | 2.0 | 4.0 | 0.00 | 0.03 | 0.03 | 89 | 1018.8 |
| 20260502115027 | 47 | 304 | 2.0 | 2.0 | 0.00 | 0.03 | 0.03 | 88 | 1018.3 |
| 20260502114025 | 47 | 26 | 2.0 | 2.0 | 0.00 | 0.03 | 0.03 | 88 | 1018.1 |
| 20260502113026 | 47 | 359 | 2.0 | 3.0 | 0.00 | 0.03 | 0.03 | 87 | 1018.0 |
| 20260502112026 | 47 | 2 | 2.0 | 2.0 | 0.00 | 0.03 | 0.03 | 87 | 1018.0 |
| 20260502111106 | 47 | 350 | 2.0 | 2.0 | 0.00 | 0.03 | 0.03 | 87 | 1017.9 |
| 20260502110026 | 48 | 15 | 2.0 | 2.0 | 0.00 | 0.03 | 0.03 | 87 | 1017.9 |
| 20260502105026 | 48 | 28 | 2.0 | 2.0 | 0.00 | 0.03 | 0.03 | 86 | 1017.8 |
| 20260502104026 | 48 | 287 | 2.0 | 2.0 | 0.00 | 0.03 | 0.03 | 86 | 1017.7 |
| 20260502103026 | 48 | 355 | 2.0 | 2.0 | 0.00 | 0.03 | 0.03 | 85 | 1017.6 |
| 20260502102026 | 48 | 318 | 2.0 | 2.0 | 0.00 | 0.03 | 0.03 | 85 | 1017.6 |
| 20260502101026 | 49 | 25 | 2.0 | 2.0 | 0.00 | 0.03 | 0.03 | 83 | 1017.5 |
| 20260502100107 | 49 | 28 | 2.0 | 2.0 | 0.00 | 0.03 | 0.03 | 83 | 1017.4 |
| 20260502091029 | 50 | 16 | 3.0 | 3.0 | 0.00 | 0.03 | 0.03 | 83 | 1017.2 |
| 20260502071019 | 54 | 9 | 2.0 | 4.0 | 0.00 | 0.00 | 0.00 | 69 | 1017.4 |
| 20260502070022 | 55 | 12 | 2.0 | 4.0 | 0.00 | 0.00 | 0.00 | 66 | 1017.7 |
| 20260502065057 | 55 | 310 | 3.0 | 6.0 | 0.00 | 0.00 | 0.00 | 59 | 1017.8 |
| 20260502064017 | 55 | 2 | 3.0 | 4.0 | 0.00 | 0.00 | 0.00 | 57 | 1017.4 |
| 20260502063020 | 55 | 36 | 2.0 | 4.0 | 0.00 | 0.00 | 0.00 | 57 | 1017.2 |
| 20260502062020 | 54 | 38 | 2.0 | 4.0 | 0.00 | 0.00 | 0.00 | 58 | 1017.2 |
| 20260502061023 | 55 | 2 | 2.0 | 4.0 | 0.00 | 0.00 | 0.00 | 59 | 1017.3 |
| 20260502060017 | 55 | 34 | 3.0 | 4.0 | 0.00 | 0.00 | 0.00 | 58 | 1017.3 |
| 20260502055057 | 56 | 26 | 3.0 | 4.0 | 0.00 | 0.00 | 0.00 | 57 | 1017.3 |
| 20260502054017 | 56 | 9 | 3.0 | 4.0 | 0.00 | 0.00 | 0.00 | 55 | 1017.3 |
| 20260502053020 | 56 | 258 | 3.0 | 4.0 | 0.00 | 0.00 | 0.00 | 53 | 1017.4 |
| 20260502052101 | 57 | 249 | 3.0 | 4.0 | 0.00 | 0.00 | 0.00 | 51 | 1017.2 |
| 20260502051018 | 57 | 6 | 3.0 | 4.0 | 0.00 | 0.00 | 0.00 | 51 | 1017.2 |
| 20260502050057 | 57 | 257 | 3.0 | 4.0 | 0.00 | 0.00 | 0.00 | 51 | 1017.2 |
| 20260502045018 | 57 | 248 | 3.0 | 4.0 | 0.00 | 0.00 | 0.00 | 50 | 1017.1 |
| 20260502044018 | 57 | 260 | 3.0 | 4.0 | 0.00 | 0.00 | 0.00 | 50 | 1017.1 |
| 20260502043018 | 57 | 289 | 3.0 | 4.0 | 0.00 | 0.00 | 0.00 | 50 | 1017.2 |
| 20260502042018 | 56 | 294 | 3.0 | 4.0 | 0.00 | 0.00 | 0.00 | 50 | 1017.2 |
| 20260502041019 | 56 | 277 | 3.0 | 4.0 | 0.00 | 0.00 | 0.00 | 52 | 1017.3 |
| 20260502040020 | 56 | 291 | 3.0 | 4.0 | 0.00 | 0.00 | 0.00 | 51 | 1017.3 |
| 20260502035019 | 56 | 328 | 3.0 | 4.0 | 0.00 | 0.00 | 0.00 | 52 | 1017.4 |
| 20260502034019 | 56 | 316 | 3.0 | 4.0 | 0.00 | 0.00 | 0.00 | 52 | 1017.4 |
| 20260502033019 | 56 | 253 | 3.0 | 4.0 | 0.00 | 0.00 | 0.00 | 51 | 1017.5 |
| 20260502031019 | 57 | 283 | 3.0 | 4.0 | 0.00 | 0.00 | 0.00 | 49 | 1017.6 |
| 20260502030019 | 57 | 247 | 3.0 | 4.0 | 0.00 | 0.01 | 0.00 | 48 | 1017.6 |
| 20260502025019 | 57 | 253 | 3.0 | 3.0 | 0.00 | 0.01 | 0.00 | 48 | 1017.6 |
| 20260502024019 | 57 | 289 | 3.0 | 4.0 | 0.00 | 0.01 | 0.00 | 55 | 1017.6 |
| 20260502023020 | 56 | 250 | 3.0 | 4.0 | 0.00 | 0.01 | 0.00 | 53 | 1017.5 |
| 20260502022019 | 56 | 247 | 3.0 | 4.0 | 0.00 | 0.01 | 0.00 | 50 | 1017.3 |
| 20260502021017 | 57 | 324 | 3.0 | 4.0 | 0.00 | 0.01 | 0.00 | 50 | 1017.1 |
| 20260502020017 | 57 | 319 | 3.0 | 4.0 | 0.00 | 0.01 | 0.00 | 49 | 1017.0 |
| 20260502015017 | 58 | 252 | 3.0 | 4.0 | 0.00 | 0.01 | 0.00 | 48 | 1016.7 |
| 20260502014020 | 58 | 246 | 3.0 | 4.0 | 0.00 | 0.01 | 0.00 | 47 | 1016.7 |
| 20260502013020 | 58 | 244 | 3.0 | 4.0 | 0.00 | 0.01 | 0.00 | 46 | 1016.6 |
| 20260502012017 | 59 | 252 | 3.0 | 3.0 | 0.00 | 0.01 | 0.00 | 44 | 1016.4 |
| 20260502011017 | 59 | 240 | 3.0 | 3.0 | 0.00 | 0.01 | 0.00 | 43 | 1016.3 |
| 20260502010018 | 60 | 249 | 3.0 | 3.0 | 0.00 | 0.01 | 0.00 | 41 | 1016.1 |
| 20260502005018 | 60 | 247 | 2.0 | 3.0 | 0.00 | 0.01 | 0.00 | 39 | 1016.0 |
| 20260502004021 | 61 | 256 | 3.0 | 3.0 | 0.00 | 0.01 | 0.00 | 38 | 1015.9 |
| 20260502003058 | 62 | 277 | 2.0 | 3.0 | 0.00 | 0.01 | 0.00 | 37 | 1016.0 |
| 20260502002018 | 64 | 327 | 2.0 | 4.0 | 0.00 | 0.01 | 0.00 | 36 | 1015.9 |
| 20260502001018 | 64 | 299 | 2.0 | 3.0 | 0.00 | 0.01 | 0.00 | 35 | 1015.8 |
| 20260502000018 | 62 | 281 | 2.0 | 3.0 | 0.00 | 0.01 | 0.00 | 37 | 1015.7 |
| 20260501235018 | 62 | 283 | 2.0 | 3.0 | 0.00 | 0.01 | 0.00 | 37 | 1015.7 |
| 20260501234019 | 63 | 307 | 2.0 | 4.0 | 0.00 | 0.01 | 0.00 | 37 | 1015.5 |
| 20260501233018 | 63 | 337 | 2.0 | 5.0 | 0.00 | 0.01 | 0.00 | 36 | 1015.3 |
| 20260501232059 | 64 | 277 | 1.0 | 6.0 | 0.00 | 0.01 | 0.00 | 35 | 1015.3 |
| 20260501231019 | 64 | 320 | 1.0 | 4.0 | 0.00 | 0.01 | 0.00 | 35 | 1015.2 |
| 20260501230022 | 65 | 301 | 1.0 | 4.0 | 0.00 | 0.01 | 0.00 | 34 | 1015.4 |
| 20260501225019 | 66 | 337 | 2.0 | 4.0 | 0.00 | 0.01 | 0.01 | 33 | 1015.5 |
| 20260501224019 | 66 | 300 | 2.0 | 5.0 | 0.00 | 0.01 | 0.01 | 33 | 1015.7 |
| 20260501223019 | 66 | 288 | 2.0 | 5.0 | 0.00 | 0.01 | 0.01 | 33 | 1015.9 |
| 20260501222100 | 67 | 288 | 2.0 | 4.0 | 0.00 | 0.01 | 0.01 | 33 | 1016.0 |
| 20260501221059 | 69 | 264 | 2.0 | 5.0 | 0.00 | 0.01 | 0.01 | 32 | 1016.0 |
| 20260501220020 | 68 | 278 | 2.0 | 4.0 | 0.00 | 0.01 | 0.01 | 35 | 1016.2 |
| 20260501215020 | 68 | 281 | 2.0 | 5.0 | 0.00 | 0.01 | 0.01 | 35 | 1016.2 |
| 20260501214020 | 68 | 309 | 2.0 | 4.0 | 0.00 | 0.01 | 0.01 | 34 | 1016.3 |
| 20260501213017 | 67 | 293 | 2.0 | 3.0 | 0.00 | 0.01 | 0.01 | 34 | 1016.4 |
| 20260501212017 | 65 | 282 | 1.0 | 4.0 | 0.00 | 0.01 | 0.01 | 36 | 1016.6 |
| 20260501211020 | 65 | 323 | 1.0 | 4.0 | 0.00 | 0.01 | 0.01 | 36 | 1016.9 |